[[{"header":{"parameterUnit":"m.s-1","parameterCategory":1,"la1":30.2991,"la2":30.254,"lo1":-89.0895,"lo2":-89.0444,"dy":0.0017,"dx":0.0017,"nx":28,"ny":28,"refTime":"2024-07-17T03:00:00:Z","depth":0,"parameterNumber":2,"parameterNumberName":"U-component_of_WINDS"},"data":[0,0,0,0,0,0,0,0,0,0,0,0,0,0,0,0,0,0,0,0,0,0,0,0,0,0,0,0,0,0,0,0,0,0,0,0,0,0,0,0,0,0,0,0,0,0,0,0,0,0,0,0,0,0,0,0,0,0,6.017,6.0169,0,6.0088,6.0087,6.0086,5.9901,5.9897,5.9893,5.9889,5.9807,5.9809,5.981,0,0,0,0,0,0,0,0,0,0,0,0,0,6.0167,6.0168,6.017,6.0169,6.0168,6.0088,6.0087,6.0086,5.9901,5.9897,5.9892,5.9888,5.9807,5.9808,5.981,0,0,0,0,0,0,0,0,0,0,0,0,0,6.0135,6.0169,6.017,6.0066,6.0056,6.0088,6.0087,6.0086,5.9902,5.9897,5.9891,5.9885,5.9806,5.9808,5.981,5.9937,0,0,5.9817,5.9817,0,0,0,0,0,0,0,0,6.0137,6.0136,6.0082,6.0073,6.0062,5.9999,6.0055,6.0036,5.9904,5.9961,5.9889,5.9883,5.9876,5.9872,5.9869,5.9934,5.993,5.9817,5.9818,5.9819,5.9819,0,0,0,0,0,0,0,6.014,6.0138,6.0137,6.0082,6.007,6.0024,6.0013,6.0051,5.9951,5.9955,5.9942,5.9934,5.9869,5.9867,5.9866,5.9929,5.9817,5.9818,5.982,5.9821,6.0089,6.0095,0,0,0,0,0,0,6.0157,6.0141,6.014,6.0135,6.0086,6.0029,6.0016,6.0025,5.995,5.9934,5.9939,5.9926,5.9867,5.9863,5.9862,6.0001,5.9819,5.9821,5.9822,6.0083,6.009,6.0097,0,0,0,0,0,0,6.0158,6.0159,6.0143,6.0134,6.0129,6.0035,6.0046,6.0026,6.0024,5.9938,5.992,5.9956,5.9862,5.9859,5.9919,5.9996,5.9822,5.9824,6.0076,6.0085,6.0094,6.0285,0,0,0,0,0,0,6.0158,6.016,6.0207,6.0137,6.013,6.0202,6.0051,6.0029,6.0028,6.001,5.9949,5.9933,5.9857,5.9917,5.9921,5.9996,5.9825,6.0069,6.008,6.0091,6.0271,6.0299,6.0323,0,0,0,0,0,6.0159,6.0266,6.0211,6.0211,6.0187,6.0207,6.0203,6.0113,6.0035,6.0081,6.0026,5.9935,5.9989,5.9925,5.9928,6.0004,6.0063,6.0077,6.009,6.0259,6.0294,6.0322,0,0,0,0,0,0,6.0349,6.0255,6.0192,6.028,6.0253,6.0176,6.0231,6.0153,6.0148,6.0131,6.002,6.0008,6.0082,6.005,5.998,6.0121,6.0011,6.0026,6.0139,6.0171,6.0196,6.02,5.9827,0,0,0,0,0,6.0401,6.0424,6.0341,6.0426,6.0416,6.0327,6.0332,6.0265,6.0232,6.022,6.0169,6.0142,6.0151,6.016,6.0165,6.0267,6.0249,6.0321,6.0348,6.0369,6.0382,6.0429,6.0458,6.014,6.014,6.014,0,0,6.0508,6.046,6.0482,6.0463,6.0434,6.046,6.0318,6.0353,6.037,6.0225,6.0276,6.0239,6.0201,6.0282,6.0315,6.0257,6.0466,6.0386,6.0404,6.0404,6.0445,6.0476,6.0502,6.0149,6.0148,6.0146,0,0,6.0716,6.0684,6.0748,6.0722,6.068,6.062,6.0636,6.0571,6.0539,6.0589,6.048,6.05,6.0521,6.0496,6.0487,6.0686,6.06,6.0691,6.0825,6.0872,6.0897,6.0918,6.0984,6.101,6.0704,6.0705,6.0705,0,6.0855,6.0889,6.0792,6.0832,6.0826,6.0696,6.076,6.074,6.0702,6.07,6.0637,6.0657,6.0623,6.0693,6.0741,6.074,6.0752,6.0695,6.0901,6.0922,6.0941,6.1002,6.1028,6.0716,6.0714,6.0713,6.0712,0,6.1059,6.1085,6.1143,6.1107,6.1108,6.1161,6.1071,6.1084,6.1018,6.0964,6.1015,6.097,6.0961,6.0974,6.091,6.1035,6.1,6.0922,6.0807,6.0983,6.1039,6.1062,6.0731,6.0727,6.0724,6.0721,0,0,6.1382,6.1291,6.1314,6.1294,6.1238,6.1256,6.1303,6.1293,6.1304,6.1283,6.1316,6.1337,6.1262,6.1252,6.1184,6.1227,6.1381,6.1141,6.1139,6.1183,6.151,6.1565,6.1594,6.1326,6.133,6.1334,6.1511,0,6.1572,6.1644,6.1558,6.1648,6.1668,6.1546,6.1585,6.1555,6.1507,6.1517,6.1464,6.1477,6.1381,6.1373,6.141,6.1354,6.1444,6.1341,6.1353,6.1354,6.136,6.1624,6.1684,6.1853,6.1533,6.1536,6.1539,0,6.1803,6.179,6.1882,6.1817,6.1823,6.186,6.1842,6.1855,6.1817,6.1779,6.1767,6.1686,6.1725,6.1619,6.1669,6.1601,6.1601,6.1575,6.1579,6.1572,6.1454,6.162,6.1906,6.1929,6.1573,6.1571,6.1568,0,6.2022,6.2029,6.2083,6.2072,6.1999,6.2027,6.1998,6.1955,6.1954,6.194,6.1937,6.1929,6.1923,6.1918,6.1836,6.1766,6.1895,6.1783,6.1861,6.1863,6.189,6.1888,6.2175,6.19,6.19,6.1899,6.1899,0,6.2241,6.23,6.218,6.2213,6.2276,6.2177,6.2242,6.2201,6.2163,6.2185,6.2081,6.2104,6.1997,6.2008,6.1945,6.1993,6.1993,6.1961,6.1942,6.1967,6.1971,6.1962,6.1946,6.1906,6.1905,6.1903,6.1902,0,6.2494,6.2417,6.2467,6.2393,6.2376,6.2425,6.2362,6.2389,6.2335,6.2363,6.2365,6.2279,6.2286,6.2205,6.2198,6.2155,6.2231,6.2195,6.2243,6.2229,6.231,6.2302,6.2597,6.2628,6.234,6.2343,6.2345,0,6.2635,6.2678,6.2609,6.2615,6.2591,6.2605,6.2602,6.2507,6.2509,6.2468,6.25,6.2499,6.2492,6.2509,6.2446,6.2439,6.2398,6.2502,6.2396,6.2418,6.2392,6.2388,6.239,6.2522,6.2526,6.2529,6.2531,0,6.2893,6.2852,6.2853,6.284,6.2839,6.2825,6.2803,6.2815,6.2711,6.2719,6.2724,6.2719,6.271,6.2709,6.269,6.2659,6.2577,6.2566,6.2582,6.2605,6.2629,6.2611,6.2297,6.2558,6.2556,6.2554,6.2552,6.2551,6.309,6.3121,6.3076,6.3079,6.3053,6.3035,6.3055,6.3003,6.3006,6.299,6.2935,6.2949,6.2909,6.2873,6.285,6.2859,6.2808,6.2834,6.2839,6.2846,6.2858,6.2633,6.2856,6.2855,6.2855,6.2854,6.2853,0,6.3338,6.3303,6.3307,6.3279,6.3281,6.3206,6.3178,6.3184,6.3198,6.3167,6.3162,6.3167,6.3165,6.3102,6.3091,6.3111,6.3073,6.3111,6.3105,6.3098,6.2908,6.2891,6.3141,6.3141,6.3141,6.3141,6.3141,6.3141,6.3466,6.3512,6.3466,6.3498,6.3462,6.3475,6.3464,6.3446,6.3421,6.3431,6.3428,6.3387,6.3342,6.3327,6.3321,6.3302,6.3301,6.3351,6.3319,6.3141,6.3113,6.3086,6.3069,6.3353,6.3353,6.3508,6.351,6.3511]},{"header":{"parameterUnit":"m.s-1","parameterCategory":1,"la1":30.2991,"la2":30.254,"lo1":-89.0895,"lo2":-89.0444,"dy":0.0017,"dx":0.0017,"nx":28,"ny":28,"refTime":"2024-07-17T03:00:00:Z","depth":0,"parameterNumber":3,"parameterNumberName":"V-component_of_WINDS"},"data":[0,0,0,0,0,0,0,0,0,0,0,0,0,0,0,0,0,0,0,0,0,0,0,0,0,0,0,0,0,0,0,0,0,0,0,0,0,0,0,0,0,0,0,0,0,0,0,0,0,0,0,0,0,0,0,0,0,0,5.001,5.0012,0,5.0186,5.0188,5.019,5.0265,5.0265,5.0264,5.0264,5.0437,5.0442,5.0447,0,0,0,0,0,0,0,0,0,0,0,0,0,4.973,4.9735,5.001,5.0012,5.0014,5.0186,5.0188,5.0191,5.0265,5.0264,5.0264,5.0264,5.0436,5.0442,5.0447,0,0,0,0,0,0,0,0,0,0,0,0,0,4.9873,4.9737,5.0009,5.0072,5.0079,5.0185,5.0188,5.0191,5.0265,5.0264,5.0264,5.0264,5.0434,5.0441,5.0448,5.0503,0,0,5.0471,5.0474,0,0,0,0,0,0,0,0,4.9865,4.9884,5.0061,5.0068,5.0076,5.0203,5.0154,5.0295,5.0265,5.0194,5.0264,5.0263,5.0359,5.0373,5.0407,5.0511,5.0518,5.0471,5.0476,5.0479,5.0481,0,0,0,0,0,0,0,4.9855,4.9876,5.0079,5.0063,5.0073,5.0089,5.0109,5.0181,5.0277,5.02,5.0206,5.0226,5.0364,5.0399,5.0411,5.0521,5.0471,5.0478,5.0482,5.0485,5.0678,5.0679,0,0,0,0,0,0,4.9836,4.9868,5.0074,5.0085,4.9968,5.0094,5.0117,5.0163,5.0276,5.0294,5.0227,5.0229,5.0387,5.0403,5.0418,5.0489,5.0479,5.0486,5.049,5.0678,5.0679,5.0679,0,0,0,0,0,0,4.983,4.9854,5.0067,4.9978,5.0006,5.01,5.0151,5.0166,5.0203,5.0297,5.0313,5.0246,5.0387,5.0407,5.0482,5.0496,5.0489,5.0496,5.0677,5.0678,5.0679,5.0632,0,0,0,0,0,0,4.9821,4.9851,4.9874,4.9978,5.0011,5.0129,5.0152,5.017,5.0216,5.0221,5.0319,5.0335,5.0389,5.047,5.0489,5.0506,5.0502,5.0676,5.0677,5.0679,5.0633,5.0632,5.0631,0,0,0,0,0,4.9811,4.9853,4.9875,4.9899,5.0042,5.013,5.0149,5.0212,5.0217,5.024,5.03,5.0332,5.0492,5.0477,5.0499,5.0519,5.0675,5.0677,5.0678,5.0633,5.0632,5.0631,0,0,0,0,0,0,4.9746,4.9867,4.9894,4.997,5.004,5.0143,5.0174,5.0208,5.0275,5.0277,5.035,5.0371,5.0439,5.0486,5.0468,5.0577,5.0586,5.0592,5.0544,5.0544,5.0542,5.0529,5.0508,0,0,0,0,0,4.9741,4.9804,4.9906,4.9964,4.9997,5.0079,5.012,5.0163,5.0236,5.0265,5.0331,5.0399,5.0465,5.0507,5.0573,5.064,5.0662,5.0664,5.0663,5.0661,5.0666,5.0704,5.0707,5.0685,5.0685,5.0685,0,0,4.973,4.9804,4.9839,4.9952,5.0011,5.0073,5.0103,5.0168,5.0214,5.0274,5.035,5.04,5.0481,5.0552,5.0586,5.0593,5.0677,5.0664,5.0662,5.0667,5.0706,5.0708,5.071,5.0686,5.0686,5.0685,0,0,4.9743,4.9806,4.9861,4.9919,5.0009,5.0063,5.0076,5.0175,5.0211,5.0288,5.0334,5.0389,5.0501,5.0557,5.06,5.0634,5.0665,5.0653,5.0646,5.0683,5.0685,5.0687,5.0699,5.0702,5.0656,5.0656,5.0656,0,4.9718,4.9816,4.9884,4.9947,4.9994,5.0054,5.011,5.0162,5.0267,5.0298,5.0304,5.0446,5.0505,5.059,5.0598,5.0631,5.0647,5.0642,5.068,5.0682,5.0685,5.0697,5.0701,5.0654,5.0655,5.0655,5.0655,0,4.978,4.9847,4.988,4.9983,5.0034,5.0093,5.0168,5.0211,5.0249,5.0302,5.0379,5.0452,5.0533,5.0556,5.0593,5.0646,5.0648,5.0666,5.0676,5.0684,5.0696,5.0701,5.0651,5.0652,5.0653,5.0653,0,0,4.9757,4.9897,4.9908,4.9956,5.0058,5.011,5.017,5.0253,5.0288,5.0358,5.0409,5.0503,5.0521,5.0569,5.0613,5.0645,5.0667,5.066,5.0662,5.0658,5.073,5.0715,5.072,5.0688,5.0689,5.069,5.0723,0,4.9783,4.9897,4.996,5.0046,5.0108,5.0165,5.0218,5.0285,5.0336,5.0394,5.0449,5.0515,5.0533,5.0563,5.0598,5.0657,5.0682,5.0655,5.0735,5.0737,5.0713,5.0726,5.0712,5.0739,5.0728,5.0729,5.073,0,4.983,4.9902,4.9994,5.009,5.0119,5.0165,5.0245,5.0301,5.0377,5.0412,5.0467,5.051,5.0574,5.0579,5.0667,5.0647,5.0684,5.0717,5.072,5.073,5.0734,5.0736,5.0749,5.0753,5.0738,5.0737,5.0737,0,4.9803,4.9923,4.9994,5.0032,5.0146,5.0177,5.0225,5.0302,5.0347,5.0416,5.0446,5.0521,5.0561,5.0617,5.0679,5.0677,5.0761,5.0771,5.079,5.0788,5.0805,5.0803,5.0823,5.0828,5.0828,5.0828,5.0828,0,4.9827,4.9881,4.9984,5.0027,5.0089,5.016,5.0219,5.0272,5.034,5.0393,5.0446,5.0494,5.0573,5.0631,5.0679,5.0744,5.0762,5.0791,5.0803,5.0786,5.0782,5.0811,5.081,5.0829,5.0829,5.0828,5.0828,0,4.9808,4.9879,4.996,5.0062,5.0088,5.0129,5.0215,5.0259,5.0312,5.0379,5.0399,5.0482,5.0553,5.062,5.0714,5.0746,5.0811,5.0827,5.0786,5.0793,5.0808,5.0806,5.0847,5.0856,5.0854,5.0854,5.0854,0,4.9818,4.9862,4.9968,5.0009,5.0057,5.0121,5.0168,5.0239,5.0285,5.0377,5.0409,5.0484,5.0548,5.0657,5.0725,5.0797,5.0815,5.0824,5.0826,5.0807,5.0815,5.0811,5.0816,5.0823,5.0822,5.0822,5.0822,0,4.9829,4.9862,4.9929,5.0008,5.0063,5.0128,5.0194,5.0224,5.0307,5.0356,5.043,5.048,5.0577,5.065,5.073,5.0777,5.0813,5.0821,5.0829,5.0813,5.0787,5.0801,5.0782,5.082,5.082,5.082,5.082,5.082,4.9825,4.9866,4.9948,5.002,5.0078,5.0139,5.0186,5.0246,5.0309,5.0395,5.0433,5.0507,5.0582,5.0693,5.074,5.0799,5.0807,5.0819,5.0822,5.0823,5.082,5.0778,5.0813,5.0813,5.0813,5.0814,5.0814,0,4.9838,4.9894,4.996,5.0053,5.0109,5.014,5.0215,5.026,5.0326,5.0394,5.0456,5.054,5.0612,5.0685,5.0761,5.0793,5.0811,5.081,5.0808,5.0819,5.0808,5.0794,5.0794,5.0794,5.0794,5.0794,5.0794,5.0794,4.9852,4.9924,4.9966,5.0067,5.0121,5.0197,5.0237,5.0293,5.0348,5.0441,5.0501,5.0549,5.0619,5.07,5.0766,5.0786,5.0811,5.0805,5.0829,5.0818,5.0819,5.082,5.0807,5.081,5.081,5.0835,5.0835,5.0835]}]]